Weather History for Cheraw, SC

Change the Weather History Date:

Tuesday, December 11, 2012

  Actual Average (KFLO) Record (KFLO)
Temperature  
Mean Temperature 60 °F 48 °F  
Max Temperature 68 °F 59 °F 80 °F (2007)
Min Temperature 51 °F 37 °F 18 °F (1968)
Degree Days  
Heating Degree Days 6 17  
Month to date heating degree days 175  
Since 1 July heating degree days 597  
Cooling Degree Days 0 0  
Month to date cooling degree days 0  
Year to date cooling degree days 2059  
Growing Degree Days 10 (Base 50)    
Moisture  
Dew Point 51 °F    
Average Humidity 73    
Maximum Humidity 100    
Minimum Humidity 49    
Precipitation  
Precipitation 0.00 in 0.10 in 1.02 in (1986)
Month to date precipitation 1.00  
Year to date precipitation 40.90  
Sea Level Pressure  
Sea Level Pressure 29.93 in    
Wind  
Wind Speed 9 mph (WSW)    
Max Wind Speed 26 mph    
Max Gust Speed 33 mph    
Visibility 10 miles    
Events      
T = Trace of Precipitation, MM = Missing Value Source: NWS Daily Summary

Daily Weather History Graph

Daily Weather History Graph

Search for Another Location

Airport:

Trip Planner

Search our weather history database for the weather conditions in past years. The results will help you decide how hot, cold, wet, or windy it might be!

Date:

Astronomy

Dec. 11, 2012 Rise Set
Actual Time 7:17 AM EST 5:09 PM EST
Civil Twilight 6:49 AM EST 5:37 PM EST
Nautical Twilight 6:17 AM EST 6:08 PM EST
Astronomical Twilight 5:47 AM EST 6:39 PM EST
Moon 5:12 AM EST (12/11) 3:45 PM EST (12/11)
Length of Visible Light 10h 48m
Length of Day
9h 52m
Waning Crescent, 4% of the Moon is Illuminated
Dec 11
Waning Crescent
Dec 13
New
Dec 20
First Quarter
Dec 28
Full
Jan 4
Last Quarter

Hourly Weather History & Observations

Time (EST) Temp. Dew Point Humidity Pressure Visibility Wind Dir Wind Speed Gust Speed Precip Events Conditions
12:15 AM 57.2 °F 57.2 °F 100% 29.76 in 10.0 mi Calm Calm - N/A   Overcast
12:35 AM 59.0 °F 59.0 °F 100% 29.77 in 10.0 mi Calm Calm - N/A   Overcast
12:55 AM 59.0 °F 59.0 °F 100% 29.76 in 10.0 mi SSW 9.2 mph - N/A   Overcast
1:15 AM 60.8 °F 59.0 °F 94% 29.76 in 10.0 mi South 8.1 mph - N/A   Overcast
1:35 AM 60.8 °F 59.0 °F 94% 29.77 in 10.0 mi SSW 4.6 mph - N/A   Overcast
1:55 AM 60.8 °F 59.0 °F 94% 29.78 in 10.0 mi WNW 8.1 mph - N/A   Overcast
2:15 AM 60.8 °F 59.0 °F 94% 29.78 in 10.0 mi SSW 8.1 mph - N/A   Overcast
2:35 AM 60.8 °F 59.0 °F 94% 29.78 in 10.0 mi South 6.9 mph - N/A   Overcast
2:55 AM 60.8 °F 59.0 °F 94% 29.79 in 10.0 mi SW 5.8 mph - N/A   Overcast
3:15 AM 60.8 °F 59.0 °F 94% 29.80 in 10.0 mi SW 6.9 mph - N/A   Overcast
3:35 AM 60.8 °F 59.0 °F 94% 29.79 in 10.0 mi South 11.5 mph 17.3 mph N/A   Overcast
3:55 AM 60.8 °F 59.0 °F 94% 29.79 in 10.0 mi South 10.4 mph - N/A   Overcast
4:15 AM 59.0 °F 59.0 °F 100% 29.80 in 10.0 mi SW 8.1 mph - N/A   Mostly Cloudy
4:35 AM 59.0 °F 59.0 °F 100% 29.80 in 10.0 mi SW 6.9 mph - N/A   Clear
4:55 AM 57.2 °F 57.2 °F 100% 29.81 in 10.0 mi WSW 8.1 mph - N/A   Scattered Clouds
5:15 AM 57.2 °F 57.2 °F 100% 29.82 in 10.0 mi WSW 8.1 mph - N/A   Mostly Cloudy
5:35 AM 59.0 °F 59.0 °F 100% 29.83 in 10.0 mi WSW 8.1 mph - N/A   Overcast
5:55 AM 59.0 °F 59.0 °F 100% 29.83 in 10.0 mi West 9.2 mph - N/A   Overcast
6:15 AM 60.8 °F 59.0 °F 94% 29.84 in 10.0 mi SW 13.8 mph 18.4 mph N/A   Overcast
6:35 AM 60.8 °F 59.0 °F 94% 29.85 in 10.0 mi West 6.9 mph - N/A   Overcast
6:55 AM 59.0 °F 59.0 °F 100% 29.85 in 10.0 mi West 5.8 mph - N/A   Overcast
7:15 AM 59.0 °F 59.0 °F 100% 29.86 in 10.0 mi WSW 4.6 mph - N/A   Overcast
7:35 AM 57.2 °F 57.2 °F 100% 29.87 in 10.0 mi SW 4.6 mph - N/A   Scattered Clouds
7:55 AM 57.2 °F 57.2 °F 100% 29.88 in 8.0 mi South 6.9 mph - N/A   Clear
8:15 AM 57.2 °F 57.2 °F 100% 29.90 in 10.0 mi SW 9.2 mph - N/A   Partly Cloudy
8:35 AM 60.8 °F 59.0 °F 94% 29.91 in 10.0 mi SW 11.5 mph - N/A   Mostly Cloudy
8:55 AM 60.8 °F 59.0 °F 94% 29.91 in 10.0 mi WSW 17.3 mph 23.0 mph N/A   Mostly Cloudy
9:15 AM 62.6 °F 57.2 °F 82% 29.91 in 10.0 mi SW 11.5 mph 21.9 mph N/A   Mostly Cloudy
9:35 AM 62.6 °F 55.4 °F 77% 29.91 in 10.0 mi WSW 12.7 mph 24.2 mph N/A   Partly Cloudy
9:55 AM 64.4 °F 55.4 °F 73% 29.93 in 10.0 mi SW 17.3 mph 31.1 mph N/A   Partly Cloudy
10:15 AM 64.4 °F 53.6 °F 68% 29.94 in 10.0 mi SW 19.6 mph 27.6 mph N/A   Mostly Cloudy
10:35 AM 64.4 °F 55.4 °F 73% 29.94 in 10.0 mi WSW 12.7 mph 24.2 mph N/A   Overcast
10:55 AM 64.4 °F 55.4 °F 73% 29.94 in 10.0 mi WSW 11.5 mph 19.6 mph N/A   Overcast
11:15 AM 64.4 °F 55.4 °F 73% 29.93 in 10.0 mi SW 15.0 mph 21.9 mph N/A   Mostly Cloudy
11:35 AM 64.4 °F 55.4 °F 73% 29.93 in 10.0 mi WSW 18.4 mph 24.2 mph N/A   Mostly Cloudy
11:55 AM 66.2 °F 53.6 °F 64% 29.93 in 10.0 mi WSW 11.5 mph 17.3 mph N/A   Partly Cloudy
12:15 PM 66.2 °F 53.6 °F 64% 29.92 in 10.0 mi SSW 13.8 mph 21.9 mph N/A   Scattered Clouds
12:35 PM 66.2 °F 53.6 °F 64% 29.92 in 10.0 mi SSW 15.0 mph 18.4 mph N/A   Mostly Cloudy
12:55 PM 66.2 °F 53.6 °F 64% 29.92 in 10.0 mi West 9.2 mph 24.2 mph N/A   Mostly Cloudy
1:15 PM 68.0 °F 51.8 °F 56% 29.92 in 10.0 mi SW 17.3 mph 25.3 mph N/A   Scattered Clouds
1:35 PM 66.2 °F 51.8 °F 60% 29.92 in 10.0 mi SW 15.0 mph 25.3 mph N/A   Partly Cloudy
1:55 PM 68.0 °F 50.0 °F 52% 29.92 in 10.0 mi SW 24.2 mph 31.1 mph N/A   Scattered Clouds
2:15 PM 66.2 °F 48.2 °F 52% 29.93 in 10.0 mi SW 12.7 mph 28.8 mph N/A   Overcast
2:35 PM 66.2 °F 48.2 °F 52% 29.94 in 10.0 mi SW 17.3 mph 24.2 mph N/A   Mostly Cloudy
2:55 PM 66.2 °F 48.2 °F 52% 29.94 in 10.0 mi SSW 17.3 mph 26.5 mph N/A   Partly Cloudy
3:15 PM 66.2 °F 48.2 °F 52% 29.94 in 10.0 mi SW 11.5 mph - N/A   Partly Cloudy
3:35 PM 66.2 °F 46.4 °F 49% 29.95 in 10.0 mi West 8.1 mph - N/A   Mostly Cloudy
3:55 PM 64.4 °F 44.6 °F 49% 29.95 in 10.0 mi West 8.1 mph - N/A   Overcast
4:15 PM 64.4 °F 44.6 °F 49% 29.97 in 10.0 mi West 8.1 mph - N/A   Overcast
4:35 PM 62.6 °F 44.6 °F 52% 29.97 in 10.0 mi Calm Calm - N/A   Overcast
4:55 PM 62.6 °F 46.4 °F 55% 29.99 in 10.0 mi NW 8.1 mph - N/A   Mostly Cloudy
5:15 PM 62.6 °F 46.4 °F 55% 30.00 in 10.0 mi NW 6.9 mph - N/A   Mostly Cloudy
5:35 PM 60.8 °F 46.4 °F 59% 30.00 in 10.0 mi WNW 9.2 mph - N/A   Mostly Cloudy
5:55 PM 60.8 °F 46.4 °F 59% 30.00 in 10.0 mi NW 8.1 mph - N/A   Mostly Cloudy
6:15 PM 59.0 °F 46.4 °F 63% 30.01 in 10.0 mi NNW 11.5 mph 16.1 mph N/A   Scattered Clouds
6:35 PM 57.2 °F 46.4 °F 67% 30.02 in 10.0 mi North 11.5 mph 17.3 mph N/A   Scattered Clouds
6:55 PM 57.2 °F 44.6 °F 63% 30.03 in 10.0 mi NNE 26.5 mph 33.4 mph N/A   Partly Cloudy
7:15 PM 55.4 °F 39.2 °F 54% 30.05 in 10.0 mi NNE 23.0 mph 33.4 mph N/A   Scattered Clouds
7:35 PM 55.4 °F 39.2 °F 54% 30.05 in 10.0 mi North 20.7 mph 29.9 mph N/A   Scattered Clouds
7:55 PM 53.6 °F 37.4 °F 54% 30.05 in 10.0 mi North 16.1 mph 26.5 mph N/A   Partly Cloudy
8:15 PM 53.6 °F 37.4 °F 54% 30.06 in 10.0 mi NNE 15.0 mph 27.6 mph N/A   Partly Cloudy
8:35 PM 53.6 °F 37.4 °F 54% 30.06 in 10.0 mi North 12.7 mph - N/A   Clear
8:55 PM 53.6 °F 37.4 °F 54% 30.07 in 10.0 mi NNE 13.8 mph 19.6 mph N/A   Scattered Clouds
9:15 PM 51.8 °F 37.4 °F 58% 30.08 in 10.0 mi NNE 12.7 mph - N/A   Mostly Cloudy
9:35 PM 51.8 °F 37.4 °F 58% 30.09 in 10.0 mi NNE 11.5 mph - N/A   Mostly Cloudy
9:55 PM 51.8 °F 35.6 °F 54% 30.10 in 10.0 mi North 12.7 mph 17.3 mph N/A   Mostly Cloudy
10:15 PM 51.8 °F 35.6 °F 54% 30.10 in 10.0 mi NNE 12.7 mph - N/A   Mostly Cloudy
10:35 PM 51.8 °F 35.6 °F 54% 30.10 in 10.0 mi NNE 11.5 mph - N/A   Mostly Cloudy
10:55 PM 51.8 °F 35.6 °F 54% 30.10 in 10.0 mi NE 16.1 mph 20.7 mph N/A   Mostly Cloudy
11:15 PM 51.8 °F 35.6 °F 54% 30.11 in 10.0 mi North 12.7 mph 24.2 mph N/A   Scattered Clouds
11:35 PM 51.8 °F 35.6 °F 54% 30.11 in 10.0 mi NNE 15.0 mph 20.7 mph N/A   Mostly Cloudy
11:55 PM 51.8 °F 33.8 °F 50% 30.11 in 10.0 mi North 13.8 mph 20.7 mph N/A   Overcast